Location: Neu-Ulm
(48.3873°N, 10.0192°E)
Time: 17:20:15
(UTC+01:00)

ISS - Pass Details

Date: 18 November 2017
Orbit: 402 x 407 km, 51.6° (Epoch: 22 November)

Event Time Altitude Azimuth Distance (km) Brightness Sun altitude
Exits shadow 05:31:17 13° 189° (S) 1,303 -1.3 -19.8°
Drops below altitude 10° 05:31:51 10° 180° (S) 1,448 -1.0 -19.7°
Sets 05:34:25 0° 159° (SSE) 2,302 0.4 -19.3°
